{"data":{"norad_id":39011,"intl_designator":"2012-066A","name":"YAOGAN-16 01A","alt_names":[],"object_type":"PAYLOAD","status":"ACTIVE","operator":null,"country":"PRC","launch_date":"2012-11-25","launch_site_code":"JSC","launch_vehicle":null,"mission":null,"orbit_class":"UNKNOWN","rcs_meters":2.511,"size_class":null,"mass_kg":null,"dimensions":null,"purposes":[],"wikipedia_slug":null,"has_3d_model":false,"image_url":null,"decayed_at":null,"tle_current":{"epoch":"2026-05-24T23:48:12.090240Z","epoch_age_seconds":82662,"freshness":"FRESH","line1":"1 39011U 12066A   26144.99180660 -.00000041  00000+0  47708-4 0  9990","line2":"2 39011  63.3550 349.7137 0433673  26.9609 335.3247 13.45514781663023","mean_motion":13.45514781,"eccentricity":0.0433673,"inclination_deg":63.355,"raan_deg":349.7137,"arg_perigee_deg":26.9609,"mean_anomaly_deg":335.3247,"bstar":4.7708e-5,"rev_number":66302,"period_min":107.02223567769,"perigee_km":764.9852247485,"apogee_km":1412.627573703,"semimajor_km":7466.9433992257,"source":"CELESTRAK","updated_at":"2026-05-25T13:37:55.331247Z"}}}